| time (UTC) | temp F | wind direction | speed MPH | gust MPH | rain 1hr in | rain 24hr in | rain mn in | humidity % | barometer mb |
| 20260505024552 | 73 | 219 | 0.0 | 0.0 | 0.00 | 0.00 | 0.00 | 44 | 1004.6 |
| 20260505024049 | 73 | 219 | 0.0 | 0.0 | 0.00 | 0.00 | 0.00 | 40 | 1004.5 |
| 20260505023552 | 74 | 219 | 0.0 | 1.0 | 0.00 | 0.00 | 0.00 | 40 | 1004.5 |
| 20260505023102 | 74 | 219 | 0.0 | 1.0 | 0.00 | 0.00 | 0.00 | 39 | 1004.5 |
| 20260505022548 | 74 | 219 | 0.0 | 2.0 | 0.00 | 0.00 | 0.00 | 39 | 1004.6 |
| 20260505022048 | 75 | 219 | 0.0 | 2.0 | 0.00 | 0.00 | 0.00 | 37 | 1004.7 |
| 20260505021548 | 75 | 219 | 0.0 | 2.0 | 0.00 | 0.00 | 0.00 | 38 | 1004.7 |
| 20260505021047 | 76 | 219 | 0.0 | 3.0 | 0.00 | 0.00 | 0.00 | 37 | 1004.7 |
| 20260505020552 | 76 | 220 | 1.0 | 3.0 | 0.00 | 0.00 | 0.00 | 35 | 1004.7 |
| 20260505020048 | 77 | 222 | 0.0 | 3.0 | 0.00 | 0.00 | 0.00 | 35 | 1004.7 |
| 20260505015547 | 77 | 186 | 1.0 | 3.0 | 0.00 | 0.00 | 0.00 | 34 | 1004.7 |
| 20260505015047 | 77 | 189 | 1.0 | 3.0 | 0.00 | 0.00 | 0.00 | 32 | 1004.7 |
| 20260505014547 | 78 | 54 | 0.0 | 3.0 | 0.00 | 0.00 | 0.00 | 33 | 1004.8 |
| 20260505014045 | 78 | 243 | 0.0 | 3.0 | 0.00 | 0.00 | 0.00 | 32 | 1004.7 |
| 20260505013546 | 78 | 165 | 1.0 | 2.0 | 0.00 | 0.00 | 0.00 | 30 | 1004.8 |
| 20260505013059 | 78 | 165 | 0.0 | 3.0 | 0.00 | 0.00 | 0.00 | 30 | 1004.8 |
| 20260505012546 | 78 | 172 | 1.0 | 3.0 | 0.00 | 0.00 | 0.00 | 28 | 1004.8 |
| 20260505012046 | 79 | 101 | 0.0 | 3.0 | 0.00 | 0.00 | 0.00 | 28 | 1004.7 |
| 20260505011545 | 79 | 92 | 0.0 | 4.0 | 0.00 | 0.00 | 0.00 | 28 | 1004.8 |
| 20260505011044 | 79 | 21 | 1.0 | 5.0 | 0.00 | 0.00 | 0.00 | 27 | 1004.9 |
| 20260505010643 | 80 | 166 | 2.0 | 5.0 | 0.00 | 0.00 | 0.00 | 28 | 1005.0 |
| 20260505010043 | 80 | 217 | 0.0 | 6.0 | 0.00 | 0.00 | 0.00 | 28 | 1004.9 |
| 20260505005542 | 79 | 133 | 1.0 | 7.0 | 0.00 | 0.00 | 0.00 | 27 | 1004.9 |
| 20260505005042 | 80 | 133 | 0.0 | 7.0 | 0.00 | 0.00 | 0.00 | 30 | 1005.0 |
| 20260505004549 | 81 | 140 | 1.0 | 7.0 | 0.00 | 0.00 | 0.00 | 30 | 1005.1 |
| 20260505004042 | 79 | 150 | 1.0 | 4.0 | 0.00 | 0.00 | 0.00 | 29 | 1005.0 |
| 20260505003542 | 80 | 173 | 1.0 | 4.0 | 0.00 | 0.00 | 0.00 | 28 | 1005.0 |
| 20260505003043 | 80 | 142 | 1.0 | 4.0 | 0.00 | 0.00 | 0.00 | 30 | 1005.0 |
| 20260505002542 | 81 | 115 | 1.0 | 4.0 | 0.00 | 0.00 | 0.00 | 27 | 1005.0 |
| 20260505002042 | 81 | 167 | 1.0 | 7.0 | 0.00 | 0.00 | 0.00 | 29 | 1004.9 |
| 20260505001541 | 81 | 234 | 1.0 | 7.0 | 0.00 | 0.00 | 0.00 | 28 | 1004.9 |
| 20260505001041 | 81 | 198 | 1.0 | 4.0 | 0.00 | 0.00 | 0.00 | 28 | 1005.0 |
| 20260505000641 | 81 | 142 | 2.0 | 4.0 | 0.00 | 0.00 | 0.00 | 26 | 1005.0 |
| 20260505000107 | 81 | 48 | 1.0 | 4.0 | 0.00 | 0.00 | 0.00 | 28 | 1005.0 |
| 20260504235550 | 81 | 161 | 1.0 | 3.0 | 0.00 | 0.00 | 0.00 | 28 | 1005.1 |
| 20260504235050 | 82 | 61 | 0.0 | 5.0 | 0.00 | 0.00 | 0.00 | 27 | 1005.1 |
| 20260504234549 | 82 | 39 | 1.0 | 5.0 | 0.00 | 0.00 | 0.00 | 27 | 1005.1 |
| 20260504234049 | 81 | 180 | 1.0 | 4.0 | 0.00 | 0.00 | 0.00 | 28 | 1005.2 |
| 20260504233547 | 81 | 190 | 1.0 | 5.0 | 0.00 | 0.00 | 0.00 | 27 | 1005.2 |
| 20260504233049 | 81 | 173 | 2.0 | 5.0 | 0.00 | 0.00 | 0.00 | 25 | 1005.3 |
| 20260504232547 | 81 | 140 | 1.0 | 5.0 | 0.00 | 0.00 | 0.00 | 28 | 1005.2 |
| 20260504232046 | 82 | 125 | 1.0 | 5.0 | 0.00 | 0.00 | 0.00 | 27 | 1005.2 |
| 20260504231547 | 82 | 122 | 0.0 | 4.0 | 0.00 | 0.00 | 0.00 | 26 | 1005.3 |
| 20260504231045 | 82 | 159 | 1.0 | 6.0 | 0.00 | 0.00 | 0.00 | 27 | 1005.4 |
| 20260504230545 | 82 | 188 | 2.0 | 6.0 | 0.00 | 0.00 | 0.00 | 24 | 1005.5 |
| 20260504225546 | 81 | 212 | 0.0 | 4.0 | 0.00 | 0.00 | 0.00 | 26 | 1005.5 |
| 20260504225044 | 83 | 126 | 1.0 | 5.0 | 0.00 | 0.00 | 0.00 | 26 | 1005.5 |
| 20260504224544 | 82 | 153 | 2.0 | 5.0 | 0.00 | 0.00 | 0.00 | 28 | 1005.6 |
| 20260504224043 | 82 | 158 | 2.0 | 6.0 | 0.00 | 0.00 | 0.00 | 25 | 1005.6 |
| 20260504223543 | 82 | 123 | 2.0 | 5.0 | 0.00 | 0.00 | 0.00 | 25 | 1005.7 |
| 20260504223044 | 82 | 16 | 1.0 | 4.0 | 0.00 | 0.00 | 0.00 | 25 | 1005.5 |
| 20260504222543 | 83 | 328 | 1.0 | 9.0 | 0.00 | 0.00 | 0.00 | 28 | 1005.5 |
| 20260504222041 | 82 | 139 | 2.0 | 9.0 | 0.00 | 0.00 | 0.00 | 26 | 1005.6 |
| 20260504221554 | 82 | 162 | 2.0 | 6.0 | 0.00 | 0.00 | 0.00 | 27 | 1005.6 |
| 20260504221042 | 82 | 28 | 1.0 | 6.0 | 0.00 | 0.00 | 0.00 | 26 | 1005.6 |
| 20260504220641 | 81 | 165 | 1.0 | 6.0 | 0.00 | 0.00 | 0.00 | 28 | 1005.7 |
| 20260504220044 | 82 | 61 | 3.0 | 7.0 | 0.00 | 0.00 | 0.00 | 26 | 1005.7 |
| 20260504215540 | 82 | 210 | 2.0 | 6.0 | 0.00 | 0.00 | 0.00 | 25 | 1005.8 |
| 20260504215038 | 82 | 156 | 1.0 | 6.0 | 0.00 | 0.00 | 0.00 | 25 | 1005.8 |
| 20260504214537 | 83 | 325 | 2.0 | 5.0 | 0.00 | 0.00 | 0.00 | 28 | 1005.8 |
| 20260504214037 | 82 | 20 | 0.0 | 6.0 | 0.00 | 0.00 | 0.00 | 29 | 1005.8 |
| 20260504213536 | 82 | 127 | 2.0 | 6.0 | 0.00 | 0.00 | 0.00 | 29 | 1005.8 |
| 20260504213043 | 81 | 17 | 1.0 | 6.0 | 0.00 | 0.00 | 0.00 | 31 | 1005.8 |
| 20260504212539 | 81 | 136 | 3.0 | 6.0 | 0.00 | 0.00 | 0.00 | 28 | 1006.0 |
| 20260504212036 | 82 | 115 | 1.0 | 4.0 | 0.00 | 0.00 | 0.00 | 31 | 1005.9 |
| 20260504211535 | 81 | 155 | 1.0 | 5.0 | 0.00 | 0.00 | 0.00 | 31 | 1006.0 |
| 20260504211035 | 81 | 155 | 1.0 | 5.0 | 0.00 | 0.00 | 0.00 | 30 | 1006.1 |
| 20260504210635 | 81 | 111 | 1.0 | 5.0 | 0.00 | 0.00 | 0.00 | 30 | 1006.2 |
| 20260504210011 | 81 | 165 | 1.0 | 5.0 | 0.00 | 0.00 | 0.00 | 33 | 1006.1 |
| 20260504205508 | 82 | 210 | 0.0 | 7.0 | 0.00 | 0.00 | 0.00 | 31 | 1006.2 |
| 20260504205007 | 80 | 228 | 2.0 | 7.0 | 0.00 | 0.00 | 0.00 | 31 | 1006.2 |
| 20260504204506 | 80 | 54 | 1.0 | 5.0 | 0.00 | 0.00 | 0.00 | 34 | 1006.3 |
| 20260504204008 | 80 | 138 | 1.0 | 5.0 | 0.00 | 0.00 | 0.00 | 33 | 1006.3 |
| 20260504203505 | 81 | 211 | 1.0 | 8.0 | 0.00 | 0.00 | 0.00 | 33 | 1006.2 |
| 20260504203007 | 79 | 97 | 0.0 | 8.0 | 0.00 | 0.00 | 0.00 | 35 | 1006.3 |
| 20260504202511 | 79 | 143 | 2.0 | 4.0 | 0.00 | 0.00 | 0.00 | 33 | 1006.3 |
| 20260504202007 | 80 | 75 | 1.0 | 4.0 | 0.00 | 0.00 | 0.00 | 35 | 1006.3 |
| 20260504201502 | 79 | 227 | 1.0 | 4.0 | 0.00 | 0.00 | 0.00 | 34 | 1006.2 |
| 20260504201001 | 78 | 76 | 2.0 | 5.0 | 0.00 | 0.00 | 0.00 | 38 | 1006.3 |
| 20260504200501 | 78 | 190 | 2.0 | 6.0 | 0.00 | 0.00 | 0.00 | 36 | 1006.4 |
| 20260504200000 | 78 | 145 | 1.0 | 6.0 | 0.00 | 0.00 | 0.00 | 36 | 1006.4 |
| 20260504195559 | 78 | 171 | 1.0 | 4.0 | 0.00 | 0.00 | 0.00 | 39 | 1006.4 |
| 20260504195101 | 78 | 57 | 1.0 | 5.0 | 0.00 | 0.00 | 0.00 | 39 | 1006.4 |
| 20260504194558 | 78 | 132 | 1.0 | 5.0 | 0.00 | 0.00 | 0.00 | 36 | 1006.5 |
| 20260504194058 | 76 | 136 | 1.0 | 6.0 | 0.00 | 0.00 | 0.00 | 39 | 1006.5 |
| 20260504193557 | 77 | 132 | 1.0 | 5.0 | 0.00 | 0.00 | 0.00 | 41 | 1006.5 |
| 20260504193058 | 76 | 19 | 1.0 | 5.0 | 0.00 | 0.00 | 0.00 | 38 | 1006.5 |
| 20260504192559 | 76 | 148 | 1.0 | 4.0 | 0.00 | 0.00 | 0.00 | 39 | 1006.5 |
| 20260504192056 | 77 | 215 | 2.0 | 5.0 | 0.00 | 0.00 | 0.00 | 36 | 1006.6 |
| 20260504191606 | 77 | 129 | 1.0 | 5.0 | 0.00 | 0.00 | 0.00 | 40 | 1006.5 |
| 20260504191056 | 76 | 125 | 2.0 | 5.0 | 0.00 | 0.00 | 0.00 | 37 | 1006.5 |
| 20260504190555 | 77 | 150 | 1.0 | 5.0 | 0.00 | 0.00 | 0.00 | 37 | 1006.6 |
| 20260504190112 | 77 | 162 | 1.0 | 5.0 | 0.00 | 0.00 | 0.00 | 38 | 1006.6 |
| 20260504185551 | 75 | 309 | 1.0 | 5.0 | 0.00 | 0.00 | 0.00 | 40 | 1006.7 |
| 20260504185051 | 75 | 159 | 2.0 | 4.0 | 0.00 | 0.00 | 0.00 | 39 | 1006.7 |
| 20260504184551 | 75 | 59 | 1.0 | 5.0 | 0.00 | 0.00 | 0.00 | 42 | 1006.7 |
| 20260504184050 | 75 | 147 | 2.0 | 5.0 | 0.00 | 0.00 | 0.00 | 41 | 1006.7 |
| 20260504183548 | 74 | 196 | 2.0 | 6.0 | 0.00 | 0.00 | 0.00 | 42 | 1006.7 |
| 20260504183049 | 74 | 248 | 1.0 | 4.0 | 0.00 | 0.00 | 0.00 | 42 | 1006.6 |
| 20260504182548 | 74 | 165 | 1.0 | 4.0 | 0.00 | 0.00 | 0.00 | 43 | 1006.7 |
| 20260504182052 | 75 | 126 | 1.0 | 4.0 | 0.00 | 0.00 | 0.00 | 42 | 1006.7 |
| 20260504181646 | 74 | 227 | 1.0 | 3.0 | 0.00 | 0.00 | 0.00 | 43 | 1006.7 |
| 20260504181046 | 74 | 43 | 0.0 | 4.0 | 0.00 | 0.00 | 0.00 | 43 | 1006.7 |
| 20260504180545 | 73 | 172 | 1.0 | 6.0 | 0.00 | 0.00 | 0.00 | 43 | 1006.7 |
| 20260504180044 | 73 | 288 | 1.0 | 6.0 | 0.00 | 0.00 | 0.00 | 45 | 1006.8 |
| 20260504175542 | 73 | 133 | 1.0 | 4.0 | 0.00 | 0.00 | 0.00 | 46 | 1006.8 |
| 20260504175041 | 72 | 128 | 1.0 | 4.0 | 0.00 | 0.00 | 0.00 | 46 | 1006.8 |
| 20260504174542 | 72 | 148 | 0.0 | 4.0 | 0.00 | 0.00 | 0.00 | 46 | 1006.7 |
| 20260504174042 | 72 | 150 | 1.0 | 5.0 | 0.00 | 0.00 | 0.00 | 46 | 1006.7 |
| 20260504173540 | 71 | 40 | 0.0 | 5.0 | 0.00 | 0.00 | 0.00 | 47 | 1006.7 |
| 20260504173040 | 71 | 138 | 1.0 | 4.0 | 0.00 | 0.00 | 0.00 | 46 | 1006.8 |
| 20260504172538 | 71 | 50 | 1.0 | 4.0 | 0.00 | 0.00 | 0.00 | 47 | 1006.8 |
| 20260504172039 | 71 | 209 | 1.0 | 4.0 | 0.00 | 0.00 | 0.00 | 46 | 1006.8 |
| 20260504171537 | 70 | 69 | 1.0 | 4.0 | 0.00 | 0.00 | 0.00 | 47 | 1006.8 |
| 20260504171037 | 71 | 138 | 0.0 | 4.0 | 0.00 | 0.00 | 0.00 | 48 | 1006.8 |
| 20260504170537 | 70 | 209 | 1.0 | 4.0 | 0.00 | 0.00 | 0.00 | 48 | 1006.7 |
| 20260504151013 | 58 | 4 | 2.0 | 3.0 | 0.00 | 0.00 | 0.00 | 65 | 1007.0 |
| 20260504150513 | 58 | 5 | 1.0 | 2.0 | 0.00 | 0.00 | 0.00 | 66 | 1006.9 |
| 20260504141004 | 57 | 348 | 1.0 | 3.0 | 0.00 | 0.00 | 0.00 | 64 | 1006.6 |
| 20260504140504 | 57 | 331 | 0.0 | 3.0 | 0.00 | 0.00 | 0.00 | 63 | 1006.6 |
| 20260504130558 | 57 | 16 | 2.0 | 4.0 | 0.00 | 0.00 | 0.00 | 63 | 1006.2 |
| 20260504110547 | 59 | 9 | 1.0 | 2.0 | 0.00 | 0.00 | 0.00 | 59 | 1006.1 |
| 20260504100542 | 59 | 12 | 0.0 | 3.0 | 0.00 | 0.00 | 0.00 | 58 | 1006.1 |
| 20260504081531 | 63 | 292 | 1.0 | 3.0 | 0.00 | 0.00 | 0.00 | 51 | 1005.9 |
| 20260504081031 | 63 | 290 | 1.0 | 6.0 | 0.00 | 0.00 | 0.00 | 50 | 1005.8 |
| 20260504080530 | 63 | 250 | 1.0 | 6.0 | 0.00 | 0.00 | 0.00 | 52 | 1005.8 |
| 20260504050524 | 66 | 30 | 2.0 | 6.0 | 0.00 | 0.00 | 0.00 | 50 | 1005.9 |
| 20260504050123 | 66 | 342 | 1.0 | 4.0 | 0.00 | 0.00 | 0.00 | 50 | 1005.8 |
| 20260504045523 | 66 | 305 | 0.0 | 4.0 | 0.00 | 0.00 | 0.00 | 50 | 1005.9 |
| 20260504045024 | 66 | 28 | 0.0 | 3.0 | 0.00 | 0.00 | 0.00 | 51 | 1005.9 |
| 20260504044527 | 66 | 29 | 1.0 | 3.0 | 0.00 | 0.00 | 0.00 | 49 | 1005.9 |
| 20260504044023 | 67 | 30 | 1.0 | 5.0 | 0.00 | 0.00 | 0.00 | 50 | 1005.9 |
| 20260504043522 | 67 | 106 | 1.0 | 5.0 | 0.00 | 0.00 | 0.00 | 49 | 1005.8 |
| 20260504043023 | 67 | 19 | 1.0 | 3.0 | 0.00 | 0.00 | 0.00 | 48 | 1005.9 |
| 20260504042523 | 67 | 19 | 1.0 | 4.0 | 0.00 | 0.00 | 0.00 | 48 | 1005.9 |
| 20260504042022 | 68 | 21 | 1.0 | 4.0 | 0.00 | 0.00 | 0.00 | 48 | 1005.9 |
| 20260504041522 | 68 | 13 | 0.0 | 4.0 | 0.00 | 0.00 | 0.00 | 48 | 1005.8 |
| 20260504041022 | 68 | 19 | 1.0 | 4.0 | 0.00 | 0.00 | 0.00 | 48 | 1005.9 |
| 20260504040522 | 68 | 8 | 1.0 | 4.0 | 0.00 | 0.00 | 0.00 | 48 | 1005.9 |
| 20260504040022 | 69 | 10 | 0.0 | 4.0 | 0.00 | 0.00 | 0.00 | 46 | 1005.9 |
| 20260504035524 | 69 | 40 | 1.0 | 6.0 | 0.00 | 0.00 | 0.00 | 46 | 1005.9 |
| 20260504035020 | 70 | 36 | 2.0 | 6.0 | 0.00 | 0.00 | 0.00 | 43 | 1005.8 |
| 20260504034518 | 70 | 18 | 1.0 | 8.0 | 0.00 | 0.00 | 0.00 | 44 | 1005.8 |
| 20260504034016 | 71 | 308 | 3.0 | 8.0 | 0.00 | 0.00 | 0.00 | 41 | 1005.8 |
| 20260504033516 | 71 | 311 | 3.0 | 8.0 | 0.00 | 0.00 | 0.00 | 41 | 1005.8 |
| 20260504033013 | 71 | 287 | 2.0 | 7.0 | 0.00 | 0.00 | 0.00 | 42 | 1005.8 |
| 20260504032518 | 71 | 316 | 1.0 | 4.0 | 0.00 | 0.00 | 0.00 | 43 | 1005.8 |
| 20260504032010 | 71 | 304 | 1.0 | 3.0 | 0.00 | 0.00 | 0.00 | 44 | 1005.7 |
| 20260504031511 | 72 | 285 | 1.0 | 4.0 | 0.00 | 0.00 | 0.00 | 42 | 1005.8 |
| 20260504031009 | 72 | 285 | 0.0 | 4.0 | 0.00 | 0.00 | 0.00 | 43 | 1005.8 |
| 20260504030509 | 72 | 319 | 1.0 | 3.0 | 0.00 | 0.00 | 0.00 | 43 | 1005.8 |
| 20260504030008 | 73 | 101 | 0.0 | 2.0 | 0.00 | 0.00 | 0.00 | 44 | 1005.8 |
| 20260504025507 | 73 | 106 | 0.0 | 2.0 | 0.00 | 0.00 | 0.00 | 43 | 1005.9 |
| 20260504025005 | 74 | 106 | 1.0 | 2.0 | 0.00 | 0.00 | 0.00 | 43 | 1005.8 |